Year,Month,Day,Hour,Minute,Value (Times are PST for windgust in km/hr)
2015,08,30,00,09,1.60
2015,08,30,00,10,3.20
2015,08,30,00,11,4.80
2015,08,30,00,13,1.60
2015,08,30,00,15,6.40
2015,08,30,00,16,3.20
2015,08,30,00,17,3.20
2015,08,30,00,18,3.20
2015,08,30,00,19,1.60
2015,08,30,00,20,3.20
2015,08,30,00,21,1.60
2015,08,30,00,23,1.60
2015,08,30,00,24,4.80
2015,08,30,00,26,4.80
2015,08,30,00,27,3.20
2015,08,30,00,28,4.80
2015,08,30,00,29,4.80
2015,08,30,00,30,3.20
2015,08,30,00,31,1.60
2015,08,30,00,33,1.60
2015,08,30,00,35,4.80
2015,08,30,00,36,1.60
2015,08,30,00,37,3.20
2015,08,30,00,38,3.20
2015,08,30,00,39,3.20
2015,08,30,00,40,1.60
2015,08,30,00,41,4.80
2015,08,30,00,42,1.60
2015,08,30,00,43,3.20
2015,08,30,00,44,4.80
2015,08,30,00,45,3.20
2015,08,30,00,46,1.60
2015,08,30,00,48,1.60
2015,08,30,00,49,1.60
2015,08,30,00,50,4.80
2015,08,30,00,51,3.20
2015,08,30,00,52,6.40
2015,08,30,00,53,1.60
2015,08,30,00,54,1.60
2015,08,30,00,55,1.60
2015,08,30,00,56,1.60
2015,08,30,00,57,3.20
2015,08,30,00,58,4.80
2015,08,30,00,59,4.80
2015,08,30,01,00,1.60
2015,08,30,01,01,1.60
2015,08,30,01,02,1.60
2015,08,30,01,03,3.20
2015,08,30,01,04,1.60
2015,08,30,01,05,1.60
2015,08,30,01,08,4.80
2015,08,30,01,09,4.80
2015,08,30,01,10,6.40
2015,08,30,01,11,4.80
2015,08,30,01,12,3.20
2015,08,30,01,13,3.20
2015,08,30,01,14,4.80
2015,08,30,01,15,6.40
2015,08,30,01,16,4.80
2015,08,30,01,17,4.80
2015,08,30,01,18,6.40
2015,08,30,01,21,1.60
2015,08,30,01,22,6.40
2015,08,30,01,23,3.20
2015,08,30,01,26,1.60
2015,08,30,01,27,1.60
2015,08,30,01,32,1.60
2015,08,30,01,36,1.60
2015,08,30,01,38,3.20
2015,08,30,01,39,1.60
2015,08,30,01,44,1.60
2015,08,30,01,47,3.20
2015,08,30,01,48,3.20
2015,08,30,01,49,1.60
2015,08,30,01,50,3.20
2015,08,30,01,53,1.60
2015,08,30,01,55,1.60
2015,08,30,01,56,3.20
2015,08,30,01,57,1.60
2015,08,30,01,58,3.20
2015,08,30,01,59,3.20
2015,08,30,02,00,3.20
2015,08,30,02,06,1.60
2015,08,30,02,07,3.20
2015,08,30,02,08,3.20
2015,08,30,02,10,1.60
2015,08,30,02,11,3.20
2015,08,30,02,12,1.60
2015,08,30,02,13,1.60
2015,08,30,02,14,3.20
2015,08,30,02,15,1.60
2015,08,30,02,19,3.20
2015,08,30,02,20,1.60
2015,08,30,02,22,3.20
2015,08,30,02,25,1.60
2015,08,30,02,28,1.60
2015,08,30,02,30,6.40
2015,08,30,02,31,4.80
2015,08,30,02,32,4.80
2015,08,30,02,34,1.60
2015,08,30,02,35,3.20
2015,08,30,02,36,3.20
2015,08,30,02,39,1.60
2015,08,30,02,40,6.40
2015,08,30,02,41,4.80
2015,08,30,02,42,3.20
2015,08,30,02,43,4.80
2015,08,30,02,44,3.20
2015,08,30,02,49,4.80
2015,08,30,02,50,1.60
2015,08,30,02,51,4.80
2015,08,30,02,52,6.40
2015,08,30,02,53,6.40
2015,08,30,02,54,4.80
2015,08,30,02,55,4.80
2015,08,30,02,56,3.20
2015,08,30,02,57,1.60
2015,08,30,02,58,1.60
2015,08,30,03,00,1.60
2015,08,30,03,01,1.60
2015,08,30,03,02,1.60
2015,08,30,03,03,1.60
2015,08,30,03,05,1.60
2015,08,30,03,07,3.20
2015,08,30,03,08,1.60
2015,08,30,03,10,1.60
2015,08,30,03,12,1.60
2015,08,30,03,13,1.60
2015,08,30,03,14,4.80
2015,08,30,03,15,3.20
2015,08,30,03,17,3.20
2015,08,30,03,18,6.40
2015,08,30,03,19,4.80
2015,08,30,03,20,3.20
2015,08,30,03,21,3.20
2015,08,30,03,22,4.80
2015,08,30,03,23,3.20
2015,08,30,03,24,6.40
2015,08,30,03,25,4.80
2015,08,30,03,26,1.60
2015,08,30,03,30,3.20
2015,08,30,03,44,1.60
2015,08,30,03,51,1.60
2015,08,30,03,52,3.20
2015,08,30,03,57,3.20
2015,08,30,03,58,1.60
2015,08,30,04,03,1.60
2015,08,30,04,07,1.60
2015,08,30,04,09,3.20
2015,08,30,04,10,1.60
2015,08,30,04,15,3.20
2015,08,30,04,16,4.80
2015,08,30,04,17,4.80
2015,08,30,04,18,1.60
2015,08,30,04,21,3.20
2015,08,30,04,22,1.60
2015,08,30,04,23,3.20
2015,08,30,04,25,1.60
2015,08,30,04,26,3.20
2015,08,30,04,27,1.60
2015,08,30,04,31,4.80
2015,08,30,04,32,3.20
2015,08,30,04,33,3.20
2015,08,30,04,34,3.20
2015,08,30,04,35,3.20
2015,08,30,04,39,3.20
2015,08,30,04,40,4.80
2015,08,30,04,41,3.20
2015,08,30,04,42,4.80
2015,08,30,04,43,1.60
2015,08,30,04,46,3.20
2015,08,30,04,47,3.20
2015,08,30,04,59,3.20
2015,08,30,05,00,4.80
2015,08,30,05,01,1.60
2015,08,30,05,06,1.60
2015,08,30,05,07,1.60
2015,08,30,05,08,1.60
2015,08,30,05,11,1.60
2015,08,30,05,14,1.60
2015,08,30,05,15,3.20
2015,08,30,05,16,3.20
2015,08,30,05,17,1.60
2015,08,30,05,18,4.80
2015,08,30,05,20,6.40
2015,08,30,05,21,6.40
2015,08,30,05,22,6.40
2015,08,30,05,23,8.10
2015,08,30,05,24,8.10
2015,08,30,05,25,6.40
2015,08,30,05,26,4.80
2015,08,30,05,27,6.40
2015,08,30,05,28,11.30
2015,08,30,05,29,6.40
2015,08,30,05,30,1.60
2015,08,30,05,31,9.60
2015,08,30,05,32,8.10
2015,08,30,05,33,8.10
2015,08,30,05,34,9.60
2015,08,30,05,35,16.10
2015,08,30,05,36,8.10
2015,08,30,05,37,14.50
2015,08,30,05,38,8.10
2015,08,30,05,39,9.60
2015,08,30,05,40,8.10
2015,08,30,05,41,4.80
2015,08,30,05,42,6.40
2015,08,30,05,43,4.80
2015,08,30,05,44,3.20
2015,08,30,05,45,8.10
2015,08,30,05,46,11.30
2015,08,30,05,47,8.10
2015,08,30,05,48,1.60
2015,08,30,05,50,1.60
2015,08,30,05,51,3.20
2015,08,30,05,52,3.20
2015,08,30,05,53,4.80
2015,08,30,05,54,6.40
2015,08,30,05,55,4.80
2015,08,30,05,56,3.20
2015,08,30,05,57,1.60
2015,08,30,05,58,4.80
2015,08,30,05,59,1.60
2015,08,30,06,01,1.60
2015,08,30,06,02,6.40
2015,08,30,06,04,1.60
2015,08,30,06,05,8.10
2015,08,30,06,06,6.40
2015,08,30,06,07,3.20
2015,08,30,06,08,8.10
2015,08,30,06,09,1.60
2015,08,30,06,10,1.60
2015,08,30,06,11,1.60
2015,08,30,06,12,1.60
2015,08,30,06,19,1.60
2015,08,30,06,20,1.60
2015,08,30,06,21,1.60
2015,08,30,06,22,3.20
2015,08,30,06,23,3.20
2015,08,30,06,26,1.60
2015,08,30,06,27,1.60
2015,08,30,06,28,1.60
2015,08,30,06,29,1.60
2015,08,30,06,30,4.80
2015,08,30,06,31,4.80
2015,08,30,06,32,6.40
2015,08,30,06,33,3.20
2015,08,30,06,34,8.10
2015,08,30,06,35,6.40
2015,08,30,06,36,11.30
2015,08,30,06,37,3.20
2015,08,30,06,38,3.20
2015,08,30,06,39,8.10
2015,08,30,06,40,8.10
2015,08,30,06,41,8.10
2015,08,30,06,42,3.20
2015,08,30,06,43,9.60
2015,08,30,06,44,6.40
2015,08,30,06,45,6.40
2015,08,30,06,46,8.10
2015,08,30,06,47,9.60
2015,08,30,06,48,8.10
2015,08,30,06,49,8.10
2015,08,30,06,50,6.40
2015,08,30,06,51,6.40
2015,08,30,06,52,14.50
2015,08,30,06,53,8.10
2015,08,30,06,54,8.10
2015,08,30,06,55,9.60
2015,08,30,06,56,6.40
2015,08,30,06,57,6.40
2015,08,30,06,58,4.80
2015,08,30,06,59,9.60
2015,08,30,07,00,6.40
2015,08,30,07,01,4.80
2015,08,30,07,02,3.20
2015,08,30,07,03,8.10
2015,08,30,07,04,4.80
2015,08,30,07,05,4.80
2015,08,30,07,08,4.80
2015,08,30,07,09,4.80
2015,08,30,07,10,3.20
2015,08,30,07,11,8.10
2015,08,30,07,12,9.60
2015,08,30,07,13,11.30
2015,08,30,07,14,8.10
2015,08,30,07,15,1.60
2015,08,30,07,18,3.20
2015,08,30,07,19,3.20
2015,08,30,07,20,4.80
2015,08,30,07,21,6.40
2015,08,30,07,22,8.10
2015,08,30,07,23,6.40
2015,08,30,07,24,4.80
2015,08,30,07,25,6.40
2015,08,30,07,26,6.40
2015,08,30,07,27,1.60
2015,08,30,07,28,1.60
2015,08,30,07,29,9.60
2015,08,30,07,30,3.20
2015,08,30,07,31,4.80
2015,08,30,07,32,4.80
2015,08,30,07,33,6.40
2015,08,30,07,34,8.10
2015,08,30,07,35,6.40
2015,08,30,07,36,4.80
2015,08,30,07,37,4.80
2015,08,30,07,38,1.60
2015,08,30,07,39,3.20
2015,08,30,07,40,4.80
2015,08,30,07,42,6.40
2015,08,30,07,43,4.80
2015,08,30,07,44,12.90
2015,08,30,07,45,6.40
2015,08,30,07,46,6.40
2015,08,30,07,47,8.10
2015,08,30,07,48,6.40
2015,08,30,07,49,4.80
2015,08,30,07,50,9.60
2015,08,30,07,51,11.30
2015,08,30,07,52,6.40
2015,08,30,07,53,11.30
2015,08,30,07,54,6.40
2015,08,30,07,55,1.60
2015,08,30,07,57,8.10
2015,08,30,07,58,9.60
2015,08,30,07,59,6.40
2015,08,30,08,00,3.20
2015,08,30,08,01,4.80
2015,08,30,08,02,8.10
2015,08,30,08,03,9.60
2015,08,30,08,04,4.80
2015,08,30,08,05,9.60
2015,08,30,08,06,8.10
2015,08,30,08,07,3.20
2015,08,30,08,08,1.60
2015,08,30,08,09,11.30
2015,08,30,08,10,9.60
2015,08,30,08,11,4.80
2015,08,30,08,12,9.60
2015,08,30,08,13,4.80
2015,08,30,08,14,8.10
2015,08,30,08,15,8.10
2015,08,30,08,16,11.30
2015,08,30,08,17,11.30
2015,08,30,08,18,3.20
2015,08,30,08,19,8.10
2015,08,30,08,20,4.80
2015,08,30,08,21,9.60
2015,08,30,08,22,9.60
2015,08,30,08,23,6.40
2015,08,30,08,24,9.60
2015,08,30,08,25,8.10
2015,08,30,08,26,4.80
2015,08,30,08,27,14.50
2015,08,30,08,28,9.60
2015,08,30,08,29,1.60
2015,08,30,08,30,9.60
2015,08,30,08,31,8.10
2015,08,30,08,32,4.80
2015,08,30,08,33,9.60
2015,08,30,08,34,6.40
2015,08,30,08,35,9.60
2015,08,30,08,36,9.60
2015,08,30,08,37,8.10
2015,08,30,08,38,3.20
2015,08,30,08,39,6.40
2015,08,30,08,40,6.40
2015,08,30,08,41,3.20
2015,08,30,08,42,3.20
2015,08,30,08,43,1.60
2015,08,30,08,44,4.80
2015,08,30,08,45,6.40
2015,08,30,08,46,3.20
2015,08,30,08,47,8.10
2015,08,30,08,48,6.40
2015,08,30,08,49,14.50
2015,08,30,08,50,8.10
2015,08,30,08,51,8.10
2015,08,30,08,52,16.10
2015,08,30,08,53,8.10
2015,08,30,08,54,19.30
2015,08,30,08,55,11.30
2015,08,30,08,56,14.50
2015,08,30,08,57,11.30
2015,08,30,08,58,6.40
2015,08,30,08,59,11.30
2015,08,30,09,00,8.10
2015,08,30,09,01,4.80
2015,08,30,09,02,14.50
2015,08,30,09,03,14.50
2015,08,30,09,04,9.60
2015,08,30,09,05,8.10
2015,08,30,09,06,8.10
2015,08,30,09,07,9.60
2015,08,30,09,08,14.50
2015,08,30,09,09,9.60
2015,08,30,09,10,8.10
2015,08,30,09,11,9.60
2015,08,30,09,12,9.60
2015,08,30,09,13,16.10
2015,08,30,09,14,9.60
2015,08,30,09,15,4.80
2015,08,30,09,16,6.40
2015,08,30,09,17,9.60
2015,08,30,09,18,6.40
2015,08,30,09,19,6.40
2015,08,30,09,20,8.10
2015,08,30,09,22,1.60
2015,08,30,09,23,8.10
2015,08,30,09,24,9.60
2015,08,30,09,25,4.80
2015,08,30,09,26,1.60
2015,08,30,09,27,8.10
2015,08,30,09,28,14.50
2015,08,30,09,29,4.80
2015,08,30,09,30,6.40
2015,08,30,09,31,3.20
2015,08,30,09,32,6.40
2015,08,30,09,33,12.90
2015,08,30,09,34,8.10
2015,08,30,09,35,4.80
2015,08,30,09,36,8.10
2015,08,30,09,37,4.80
2015,08,30,09,38,1.60
2015,08,30,09,39,1.60
2015,08,30,09,40,8.10
2015,08,30,09,41,8.10
2015,08,30,09,42,11.30
2015,08,30,09,43,4.80
2015,08,30,09,44,12.90
2015,08,30,09,45,12.90
2015,08,30,09,46,17.70
2015,08,30,09,47,14.50
2015,08,30,09,48,4.80
2015,08,30,09,49,8.10
2015,08,30,09,50,6.40
2015,08,30,09,51,6.40
2015,08,30,09,52,3.20
2015,08,30,09,53,3.20
2015,08,30,09,54,6.40
2015,08,30,09,55,6.40
2015,08,30,09,56,6.40
2015,08,30,09,57,14.50
2015,08,30,09,58,3.20
2015,08,30,09,59,6.40
2015,08,30,10,00,11.30
2015,08,30,10,01,4.80
2015,08,30,10,02,8.10
2015,08,30,10,03,9.60
2015,08,30,10,04,6.40
2015,08,30,10,05,1.60
2015,08,30,10,06,6.40
2015,08,30,10,07,4.80
2015,08,30,10,08,14.50
2015,08,30,10,09,4.80
2015,08,30,10,10,9.60
2015,08,30,10,11,16.10
2015,08,30,10,12,14.50
2015,08,30,10,13,19.30
2015,08,30,10,14,14.50
2015,08,30,10,15,11.30
2015,08,30,10,16,6.40
2015,08,30,10,17,9.60
2015,08,30,10,18,8.10
2015,08,30,10,19,4.80
2015,08,30,10,20,8.10
2015,08,30,10,21,16.10
2015,08,30,10,22,9.60
2015,08,30,10,23,9.60
2015,08,30,10,24,11.30
2015,08,30,10,25,16.10
2015,08,30,10,26,4.80
2015,08,30,10,27,9.60
2015,08,30,10,28,19.30
2015,08,30,10,29,14.50
2015,08,30,10,30,11.30
2015,08,30,10,31,8.10
2015,08,30,10,32,14.50
2015,08,30,10,33,17.70
2015,08,30,10,34,12.90
2015,08,30,10,35,12.90
2015,08,30,10,36,17.70
2015,08,30,10,37,8.10
2015,08,30,10,38,14.50
2015,08,30,10,39,11.30
2015,08,30,10,40,6.40
2015,08,30,10,41,4.80
2015,08,30,10,42,9.60
2015,08,30,10,43,14.50
2015,08,30,10,44,6.40
2015,08,30,10,45,8.10
2015,08,30,10,46,9.60
2015,08,30,10,47,6.40
2015,08,30,10,48,8.10
2015,08,30,10,49,4.80
2015,08,30,10,50,11.30
2015,08,30,10,51,4.80
2015,08,30,10,52,8.10
2015,08,30,10,53,17.70
2015,08,30,10,54,17.70
2015,08,30,10,55,16.10
2015,08,30,10,56,14.50
2015,08,30,10,57,6.40
2015,08,30,10,58,12.90
2015,08,30,10,59,11.30
2015,08,30,11,00,16.10
2015,08,30,11,01,4.80
2015,08,30,11,02,6.40
2015,08,30,11,03,4.80
2015,08,30,11,04,11.30
2015,08,30,11,05,4.80
2015,08,30,11,06,3.20
2015,08,30,11,07,6.40
2015,08,30,11,08,8.10
2015,08,30,11,09,9.60
2015,08,30,11,10,9.60
2015,08,30,11,11,8.10
2015,08,30,11,12,6.40
2015,08,30,11,13,17.70
2015,08,30,11,14,14.50
2015,08,30,11,15,4.80
2015,08,30,11,16,8.10
2015,08,30,11,17,11.30
2015,08,30,11,18,11.30
2015,08,30,11,19,19.30
2015,08,30,11,20,14.50
2015,08,30,11,21,17.70
2015,08,30,11,22,9.60
2015,08,30,11,23,20.90
2015,08,30,11,24,17.70
2015,08,30,11,25,20.90
2015,08,30,11,26,17.70
2015,08,30,11,27,17.70
2015,08,30,11,28,16.10
2015,08,30,11,29,20.90
2015,08,30,11,30,20.90
2015,08,30,11,31,17.70
2015,08,30,11,32,22.50
2015,08,30,11,33,11.30
2015,08,30,11,34,17.70
2015,08,30,11,35,20.90
2015,08,30,11,36,9.60
2015,08,30,11,37,16.10
2015,08,30,11,38,16.10
2015,08,30,11,39,17.70
2015,08,30,11,40,20.90
2015,08,30,11,41,19.30
2015,08,30,11,42,17.70
2015,08,30,11,43,14.50
2015,08,30,11,44,16.10
2015,08,30,11,45,12.90
2015,08,30,11,46,17.70
2015,08,30,11,47,11.30
2015,08,30,11,48,8.10
2015,08,30,11,49,11.30
2015,08,30,11,50,11.30
2015,08,30,11,51,6.40
2015,08,30,11,52,17.70
2015,08,30,11,53,17.70
2015,08,30,11,54,19.30
2015,08,30,11,55,19.30
2015,08,30,11,56,16.10
2015,08,30,11,57,19.30
2015,08,30,11,58,14.50
2015,08,30,11,59,17.70
2015,08,30,12,00,17.70
2015,08,30,12,01,22.50
2015,08,30,12,02,9.60
2015,08,30,12,03,9.60
2015,08,30,12,04,19.30
2015,08,30,12,05,12.90
2015,08,30,12,06,22.50
2015,08,30,12,07,24.20
2015,08,30,12,08,19.30
2015,08,30,12,09,22.50
2015,08,30,12,10,20.90
2015,08,30,12,11,19.30
2015,08,30,12,12,24.20
2015,08,30,12,13,27.40
2015,08,30,12,14,24.20
2015,08,30,12,15,25.70
2015,08,30,12,16,25.70
2015,08,30,12,17,24.20
2015,08,30,12,18,17.70
2015,08,30,12,19,20.90
2015,08,30,12,20,12.90
2015,08,30,12,21,16.10
2015,08,30,12,22,9.60
2015,08,30,12,23,22.50
2015,08,30,12,24,25.70
2015,08,30,12,25,24.20
2015,08,30,12,26,16.10
2015,08,30,12,27,16.10
2015,08,30,12,28,24.20
2015,08,30,12,29,19.30
2015,08,30,12,30,19.30
2015,08,30,12,31,17.70
2015,08,30,12,32,20.90
2015,08,30,12,33,22.50
2015,08,30,12,34,32.20
2015,08,30,12,35,17.70
2015,08,30,12,36,8.10
2015,08,30,12,37,22.50
2015,08,30,12,38,17.70
2015,08,30,12,39,17.70
2015,08,30,12,40,9.60
2015,08,30,12,41,17.70
2015,08,30,12,42,16.10
2015,08,30,12,43,27.40
2015,08,30,12,44,19.30
2015,08,30,12,45,24.20
2015,08,30,12,46,24.20
2015,08,30,12,47,30.60
2015,08,30,12,48,25.70
2015,08,30,12,49,17.70
2015,08,30,12,50,16.10
2015,08,30,12,51,24.20
2015,08,30,12,52,27.40
2015,08,30,12,53,25.70
2015,08,30,12,54,24.20
2015,08,30,12,55,16.10
2015,08,30,12,56,19.30
2015,08,30,12,57,17.70
2015,08,30,12,58,6.40
2015,08,30,12,59,19.30
2015,08,30,13,00,16.10
2015,08,30,13,01,20.90
2015,08,30,13,02,9.60
2015,08,30,13,03,11.30
2015,08,30,13,04,12.90
2015,08,30,13,05,8.10
2015,08,30,13,06,9.60
2015,08,30,13,07,16.10
2015,08,30,13,08,4.80
2015,08,30,13,09,9.60
2015,08,30,13,10,12.90
2015,08,30,13,11,8.10
2015,08,30,13,12,8.10
2015,08,30,13,13,9.60
2015,08,30,13,14,9.60
2015,08,30,13,15,9.60
2015,08,30,13,16,6.40
2015,08,30,13,17,8.10
2015,08,30,13,18,1.60
2015,08,30,13,19,4.80
2015,08,30,13,20,4.80
2015,08,30,13,22,8.10
2015,08,30,13,23,8.10
2015,08,30,13,24,6.40
2015,08,30,13,25,3.20
2015,08,30,13,26,9.60
2015,08,30,13,27,6.40
2015,08,30,13,28,16.10
2015,08,30,13,29,9.60
2015,08,30,13,30,11.30
2015,08,30,13,31,14.50
2015,08,30,13,32,14.50
2015,08,30,13,33,9.60
2015,08,30,13,34,14.50
2015,08,30,13,35,17.70
2015,08,30,13,36,16.10
2015,08,30,13,37,6.40
2015,08,30,13,38,16.10
2015,08,30,13,39,11.30
2015,08,30,13,40,9.60
2015,08,30,13,41,22.50
2015,08,30,13,42,17.70
2015,08,30,13,43,9.60
2015,08,30,13,44,17.70
2015,08,30,13,45,16.10
2015,08,30,13,46,17.70
2015,08,30,13,47,16.10
2015,08,30,13,48,11.30
2015,08,30,13,49,11.30
2015,08,30,13,50,12.90
2015,08,30,13,51,14.50
2015,08,30,13,52,11.30
2015,08,30,13,53,14.50
2015,08,30,13,54,17.70
2015,08,30,13,55,8.10
2015,08,30,13,56,6.40
2015,08,30,13,57,3.20
2015,08,30,13,58,14.50
2015,08,30,13,59,19.30
2015,08,30,14,00,14.50
2015,08,30,14,01,12.90
2015,08,30,14,02,4.80
2015,08,30,14,03,6.40
2015,08,30,14,04,8.10
2015,08,30,14,05,9.60
2015,08,30,14,06,9.60
2015,08,30,14,07,11.30
2015,08,30,14,08,11.30
2015,08,30,14,09,6.40
2015,08,30,14,10,8.10
2015,08,30,14,11,12.90
2015,08,30,14,12,14.50
2015,08,30,14,13,17.70
2015,08,30,14,14,19.30
2015,08,30,14,15,17.70
2015,08,30,14,16,4.80
2015,08,30,14,17,16.10
2015,08,30,14,18,8.10
2015,08,30,14,19,11.30
2015,08,30,14,20,20.90
2015,08,30,14,21,19.30
2015,08,30,14,22,16.10
2015,08,30,14,23,8.10
2015,08,30,14,24,11.30
2015,08,30,14,25,14.50
2015,08,30,14,26,16.10
2015,08,30,14,27,14.50
2015,08,30,14,28,11.30
2015,08,30,14,29,6.40
2015,08,30,14,30,24.20
2015,08,30,14,31,11.30
2015,08,30,14,32,11.30
2015,08,30,14,33,9.60
2015,08,30,14,34,17.70
2015,08,30,14,35,8.10
2015,08,30,14,36,3.20
2015,08,30,14,37,12.90
2015,08,30,14,38,11.30
2015,08,30,14,39,4.80
2015,08,30,14,40,14.50
2015,08,30,14,41,4.80
2015,08,30,14,42,8.10
2015,08,30,14,43,4.80
2015,08,30,14,44,19.30
2015,08,30,14,45,11.30
2015,08,30,14,46,6.40
2015,08,30,14,47,11.30
2015,08,30,14,48,8.10
2015,08,30,14,49,3.20
2015,08,30,14,50,9.60
2015,08,30,14,51,17.70
2015,08,30,14,52,8.10
2015,08,30,14,53,19.30
2015,08,30,14,54,16.10
2015,08,30,14,55,17.70
2015,08,30,14,56,8.10
2015,08,30,14,57,11.30
2015,08,30,14,58,11.30
2015,08,30,14,59,12.90
2015,08,30,15,00,19.30
2015,08,30,15,01,16.10
2015,08,30,15,02,20.90
2015,08,30,15,03,20.90
2015,08,30,15,04,20.90
2015,08,30,15,05,16.10
2015,08,30,15,06,16.10
2015,08,30,15,07,20.90
2015,08,30,15,08,16.10
2015,08,30,15,09,16.10
2015,08,30,15,10,14.50
2015,08,30,15,11,17.70
2015,08,30,15,12,14.50
2015,08,30,15,13,19.30
2015,08,30,15,14,14.50
2015,08,30,15,15,11.30
2015,08,30,15,16,20.90
2015,08,30,15,17,22.50
2015,08,30,15,18,16.10
2015,08,30,15,19,8.10
2015,08,30,15,20,19.30
2015,08,30,15,21,14.50
2015,08,30,15,22,29.00
2015,08,30,15,23,30.60
2015,08,30,15,24,19.30
2015,08,30,15,25,11.30
2015,08,30,15,26,14.50
2015,08,30,15,27,3.20
2015,08,30,15,28,17.70
2015,08,30,15,29,14.50
2015,08,30,15,30,14.50
2015,08,30,15,31,11.30
2015,08,30,15,32,16.10
2015,08,30,15,33,17.70
2015,08,30,15,34,9.60
2015,08,30,15,35,9.60
2015,08,30,15,36,8.10
2015,08,30,15,37,9.60
2015,08,30,15,38,12.90
2015,08,30,15,39,6.40
2015,08,30,15,40,12.90
2015,08,30,15,41,8.10
2015,08,30,15,42,20.90
2015,08,30,15,43,16.10
2015,08,30,15,44,20.90
2015,08,30,15,45,11.30
2015,08,30,15,46,16.10
2015,08,30,15,47,24.20
2015,08,30,15,48,20.90
2015,08,30,15,49,22.50
2015,08,30,15,50,17.70
2015,08,30,15,51,17.70
2015,08,30,15,52,11.30
2015,08,30,15,53,8.10
2015,08,30,15,54,22.50
2015,08,30,15,55,17.70
2015,08,30,15,56,22.50
2015,08,30,15,57,9.60
2015,08,30,15,58,20.90
2015,08,30,15,59,19.30
2015,08,30,16,00,17.70
2015,08,30,16,01,16.10
2015,08,30,16,02,9.60
2015,08,30,16,03,3.20
2015,08,30,16,04,17.70
2015,08,30,16,05,19.30
2015,08,30,16,06,14.50
2015,08,30,16,07,16.10
2015,08,30,16,08,9.60
2015,08,30,16,09,22.50
2015,08,30,16,10,16.10
2015,08,30,16,11,14.50
2015,08,30,16,12,8.10
2015,08,30,16,13,19.30
2015,08,30,16,14,16.10
2015,08,30,16,15,20.90
2015,08,30,16,16,4.80
2015,08,30,16,17,11.30
2015,08,30,16,18,9.60
2015,08,30,16,19,22.50
2015,08,30,16,20,16.10
2015,08,30,16,21,19.30
2015,08,30,16,22,20.90
2015,08,30,16,23,19.30
2015,08,30,16,24,11.30
2015,08,30,16,25,6.40
2015,08,30,16,26,16.10
2015,08,30,16,27,16.10
2015,08,30,16,28,9.60
2015,08,30,16,29,11.30
2015,08,30,16,30,16.10
2015,08,30,16,31,8.10
2015,08,30,16,32,1.60
2015,08,30,16,33,1.60
2015,08,30,16,34,16.10
2015,08,30,16,35,19.30
2015,08,30,16,36,4.80
2015,08,30,16,37,14.50
2015,08,30,16,38,9.60
2015,08,30,16,39,8.10
2015,08,30,16,40,6.40
2015,08,30,16,41,8.10
2015,08,30,16,42,8.10
2015,08,30,16,43,11.30
2015,08,30,16,44,3.20
2015,08,30,16,45,6.40
2015,08,30,16,46,3.20
2015,08,30,16,47,8.10
2015,08,30,16,48,16.10
2015,08,30,16,49,8.10
2015,08,30,16,50,11.30
2015,08,30,16,51,4.80
2015,08,30,16,52,9.60
2015,08,30,16,53,8.10
2015,08,30,16,54,4.80
2015,08,30,16,55,6.40
2015,08,30,16,56,11.30
2015,08,30,16,57,14.50
2015,08,30,16,58,22.50
2015,08,30,16,59,8.10
2015,08,30,17,00,9.60
2015,08,30,17,01,14.50
2015,08,30,17,02,6.40
2015,08,30,17,03,11.30
2015,08,30,17,04,8.10
2015,08,30,17,05,12.90
2015,08,30,17,06,9.60
2015,08,30,17,07,16.10
2015,08,30,17,08,9.60
2015,08,30,17,09,19.30
2015,08,30,17,10,12.90
2015,08,30,17,11,16.10
2015,08,30,17,12,12.90
2015,08,30,17,13,11.30
2015,08,30,17,14,6.40
2015,08,30,17,15,6.40
2015,08,30,17,16,16.10
2015,08,30,17,17,8.10
2015,08,30,17,18,22.50
2015,08,30,17,19,25.70
2015,08,30,17,20,16.10
2015,08,30,17,21,6.40
2015,08,30,17,22,8.10
2015,08,30,17,23,6.40
2015,08,30,17,24,11.30
2015,08,30,17,25,6.40
2015,08,30,17,26,6.40
2015,08,30,17,27,3.20
2015,08,30,17,28,14.50
2015,08,30,17,29,8.10
2015,08,30,17,30,14.50
2015,08,30,17,31,6.40
2015,08,30,17,32,8.10
2015,08,30,17,33,9.60
2015,08,30,17,34,11.30
2015,08,30,17,35,11.30
2015,08,30,17,36,17.70
2015,08,30,17,37,16.10
2015,08,30,17,38,8.10
2015,08,30,17,39,12.90
2015,08,30,17,40,9.60
2015,08,30,17,41,25.70
2015,08,30,17,42,20.90
2015,08,30,17,43,16.10
2015,08,30,17,44,12.90
2015,08,30,17,45,20.90
2015,08,30,17,46,6.40
2015,08,30,17,47,17.70
2015,08,30,17,48,9.60
2015,08,30,17,49,9.60
2015,08,30,17,50,6.40
2015,08,30,17,51,19.30
2015,08,30,17,52,16.10
2015,08,30,17,53,9.60
2015,08,30,17,54,20.90
2015,08,30,17,55,11.30
2015,08,30,17,56,16.10
2015,08,30,17,57,6.40
2015,08,30,17,58,16.10
2015,08,30,17,59,11.30
2015,08,30,18,00,9.60
2015,08,30,18,01,14.50
2015,08,30,18,02,8.10
2015,08,30,18,03,6.40
2015,08,30,18,04,11.30
2015,08,30,18,05,8.10
2015,08,30,18,06,6.40
2015,08,30,18,07,9.60
2015,08,30,18,08,11.30
2015,08,30,18,09,20.90
2015,08,30,18,10,4.80
2015,08,30,18,11,8.10
2015,08,30,18,12,8.10
2015,08,30,18,13,6.40
2015,08,30,18,14,3.20
2015,08,30,18,15,6.40
2015,08,30,18,16,11.30
2015,08,30,18,17,9.60
2015,08,30,18,18,8.10
2015,08,30,18,19,6.40
2015,08,30,18,20,4.80
2015,08,30,18,21,4.80
2015,08,30,18,22,3.20
2015,08,30,18,23,4.80
2015,08,30,18,24,11.30
2015,08,30,18,25,9.60
2015,08,30,18,26,6.40
2015,08,30,18,27,4.80
2015,08,30,18,28,6.40
2015,08,30,18,29,4.80
2015,08,30,18,30,6.40
2015,08,30,18,31,20.90
2015,08,30,18,32,20.90
2015,08,30,18,33,4.80
2015,08,30,18,34,6.40
2015,08,30,18,35,4.80
2015,08,30,18,36,4.80
2015,08,30,18,37,12.90
2015,08,30,18,38,9.60
2015,08,30,18,39,8.10
2015,08,30,18,40,4.80
2015,08,30,18,41,4.80
2015,08,30,18,42,11.30
2015,08,30,18,43,9.60
2015,08,30,18,44,6.40
2015,08,30,18,45,6.40
2015,08,30,18,46,3.20
2015,08,30,18,47,1.60
2015,08,30,18,48,1.60
2015,08,30,18,49,6.40
2015,08,30,18,50,4.80
2015,08,30,18,51,4.80
2015,08,30,18,52,6.40
2015,08,30,18,53,8.10
2015,08,30,18,54,8.10
2015,08,30,18,56,6.40
2015,08,30,18,58,1.60
2015,08,30,18,59,9.60
2015,08,30,19,00,8.10
2015,08,30,19,01,4.80
2015,08,30,19,02,8.10
2015,08,30,19,03,3.20
2015,08,30,19,04,6.40
2015,08,30,19,05,6.40
2015,08,30,19,08,1.60
2015,08,30,19,09,3.20
2015,08,30,19,10,8.10
2015,08,30,19,11,8.10
2015,08,30,19,12,17.70
2015,08,30,19,13,6.40
2015,08,30,19,14,6.40
2015,08,30,19,15,8.10
2015,08,30,19,16,8.10
2015,08,30,19,17,4.80
2015,08,30,19,19,8.10
2015,08,30,19,20,11.30
2015,08,30,19,21,11.30
2015,08,30,19,22,9.60
2015,08,30,19,23,4.80
2015,08,30,19,24,14.50
2015,08,30,19,25,9.60
2015,08,30,19,26,8.10
2015,08,30,19,27,3.20
2015,08,30,19,28,4.80
2015,08,30,19,29,9.60
2015,08,30,19,30,16.10
2015,08,30,19,31,24.20
2015,08,30,19,32,6.40
2015,08,30,19,33,8.10
2015,08,30,19,34,9.60
2015,08,30,19,35,9.60
2015,08,30,19,36,9.60
2015,08,30,19,37,22.50
2015,08,30,19,38,20.90
2015,08,30,19,39,12.90
2015,08,30,19,40,9.60
2015,08,30,19,41,9.60
2015,08,30,19,42,11.30
2015,08,30,19,43,4.80
2015,08,30,19,44,1.60
2015,08,30,19,45,4.80
2015,08,30,19,46,1.60
2015,08,30,19,49,9.60
2015,08,30,19,50,11.30
2015,08,30,19,51,8.10
2015,08,30,19,52,6.40
2015,08,30,19,53,9.60
2015,08,30,19,54,3.20
2015,08,30,19,55,4.80
2015,08,30,19,56,20.90
2015,08,30,19,57,8.10
2015,08,30,19,58,6.40
2015,08,30,19,59,8.10
2015,08,30,20,00,4.80
2015,08,30,20,01,8.10
2015,08,30,20,02,4.80
2015,08,30,20,03,6.40
2015,08,30,20,04,4.80
2015,08,30,20,05,6.40
2015,08,30,20,06,9.60
2015,08,30,20,07,3.20
2015,08,30,20,08,11.30
2015,08,30,20,09,6.40
2015,08,30,20,10,9.60
2015,08,30,20,11,11.30
2015,08,30,20,12,4.80
2015,08,30,20,13,1.60
2015,08,30,20,14,1.60
2015,08,30,20,16,3.20
2015,08,30,20,17,1.60
2015,08,30,20,18,1.60
2015,08,30,20,21,9.60
2015,08,30,20,22,9.60
2015,08,30,20,23,9.60
2015,08,30,20,24,3.20
2015,08,30,20,25,8.10
2015,08,30,20,26,11.30
2015,08,30,20,27,17.70
2015,08,30,20,28,9.60
2015,08,30,20,29,4.80
2015,08,30,20,30,1.60
2015,08,30,20,31,3.20
2015,08,30,20,32,4.80
2015,08,30,20,33,3.20
2015,08,30,20,34,8.10
2015,08,30,20,35,14.50